Regional Weather Roundup
Issued by NWS

Home | Current Version | Previous Version | Text Only | Print | Product List | Glossary Off
Versions: 1 2 3 4 5 6 7 8 9 10 11 12 13 14 15 16 17 18 19 20 21 22 23 24 25 26 27 28 29 30 31 32 33 34 35 36 37 38 39 40 41 42 43 44 45 46 47 48 49 50

000
ASUS43 KIND 162109
RWRIN

WEATHER ROUNDUP FOR INDIANA
NATIONAL WEATHER SERVICE INDIANAPOLIS IN
500 PM EDT WED AUG 16 2017

NOTE: "FAIR" INDICATES FEW OR NO CLOUDS BELOW 12,000 FEET WITH NO
SIGNIFICANT WEATHER AND/OR OBSTRUCTIONS TO VISIBILITY.

* - STATION DOES NOT REPORT WEATHER SUCH AS PRECIPITATION OR FOG.

+ - STATION NOT QUALITY CONTROLLED BY THE NATIONAL WEATHER SERVICE.
    USE DATA WITH CAUTION...ESPECIALLY DEWPOINT AND RELATIVE
    HUMIDITY OBSERVATIONS.

INZ001>003-010>013-019-020-162200-
NORTHWEST INDIANA

CITY           SKY/WX    TMP DP  RH WIND       PRES   REMARKS
GARY /AIRPORT/ PTSUNNY   88  64  45 SE8       29.91F
KNOX *+        CLOUDY    86  68  54 SE10      29.93F
LA PORTE +     MOSUNNY   87  69  54 S7        29.94F
MICHIGAN CITY+ MOSUNNY   86  68  54 S5        29.93F
MONTICELLO +   MOSUNNY   86  68  54 S6        29.93F
RENSSELAER +   SUNNY     86  63  45 S9        29.92F
VALPARAISO     MOSUNNY   89  69  51 S9        29.93F

$$

LMZ046-743>745-162200-
SOUTHERN LAKE MICHIGAN

STATION/POSITION TIME  TEMP    WIND        PRES    WAVE
                       AIR SEA DIR/SP/G            HT
                 (UTC) (F)     (DEG/KT/KT) (MB)    (FT)
BURNS HARBOR     2040   87     180/ 13/ 17 1013.2F
MICHIGAN CITY    2040   86     150/  8/ 11   N/A
5NW MICH CITY    2100   78 76   60/  8/ 12   N/A     1

$$

INZ004-005-014>016-021>024-162200-
NORTH CENTRAL INDIANA

CITY           SKY/WX    TMP DP  RH WIND       PRES   REMARKS
ELKHART        MOSUNNY   88  68  51 S12       29.95F
GOSHEN         MOSUNNY   87  65  47 SE9       29.96F
LOGANSPORT +   MOSUNNY   86  68  54 S7        29.94F
PERU/GRISSOM   PTSUNNY   87  70  56 SE10      29.94F
ROCHESTER +    MOSUNNY   90  68  48 S6        29.95F
SOUTH BEND     MOSUNNY   88  69  53 S14       29.94F
WARSAW +       PTSUNNY   82  68  61 SE6       29.96F

$$

INZ006>009-017-018-025>027-162200-
NORTHEAST INDIANA

CITY           SKY/WX    TMP DP  RH WIND       PRES   REMARKS
AUBURN +       MOSUNNY   88  63  42 CALM      29.98F
FORT WAYNE     MOSUNNY   87  64  46 S6        29.97F
HUNTINGTON +   MOSUNNY   88  64  45 SW6       29.96F
KENDALLVILLE + MOSUNNY   86  67  52 SE6       29.98F

$$

INZ028-029-035-036-043>045-051>053-162200-
WEST CENTRAL INDIANA

CITY           SKY/WX    TMP DP  RH WIND       PRES   REMARKS
GREENCASTLE +  CLOUDY    84  70  61 S5        29.96F
LAFAYETTE      CLOUDY    84  72  67 S10       29.92F
TERRE HAUTE    MOSUNNY   85  72  65 S7        29.94F

$$

INZ030>032-037>040-046>048-054>057-064-065-162200-
CENTRAL INDIANA

CITY           SKY/WX    TMP DP  RH WIND       PRES   REMARKS
CP ATTERBURY + PTSUNNY   86  70  58 S5        29.96F
COLUMBUS       MOSUNNY   90  64  43 S9        29.95F
FRANKFORT +    CLOUDY    88  74  61 SW6       29.96F HX  96
GREENWOOD *+   MOSUNNY   86  69  56 S5        29.96F
INDIANAPOLIS   PTSUNNY   87  70  56 S13       29.94F
-EAGLE CREEK   CLOUDY    88  68  51 S9        29.94F
KOKOMO +       SUNNY     86  72  62 SE7       29.96F
MARION +       SUNNY     88  66  48 S8        29.96F HAZE
MT COMFORT *+  PTSUNNY   84  70  61 S5        29.97F
SHELBYVILLE    MOSUNNY   88  69  53 S6        29.95F
ZIONSVILLE +   MOSUNNY   86  70  59 S10       29.96F

$$

INZ033-034-041-042-049-050-058-059-162200-
EAST CENTRAL INDIANA

CITY           SKY/WX    TMP DP  RH WIND       PRES   REMARKS
MUNCIE         MOSUNNY   90  66  45 VRB7      29.96F
RICHMOND +     SUNNY     84  68  58 CALM      30.00F

$$

INZ060-061-067>069-081>083-085>088-162200-
SOUTHWEST INDIANA

CITY           SKY/WX    TMP DP  RH WIND       PRES   REMARKS
EVANSVILLE     CLOUDY    87  73  62 VRB3      29.94F
HUNTINGBURG +  CLOUDY    86  75  69 S5        29.96F HX  95
WASHINGTON +   MOSUNNY   85  71  61 MISG      29.94F

$$

INZ062-063-066-070>080-084-089>092-162200-
SOUTH CENTRAL AND SOUTHEAST INDIANA

CITY           SKY/WX    TMP DP  RH WIND       PRES   REMARKS
BEDFORD +      CLOUDY    86  68  54 SW10      29.96F
BLOOMINGTON    MOSUNNY   87  70  56 S10       29.96F
MADISON *+     SUNNY     90  66  45 S7        29.99F
NORTH VERNON + MOSUNNY   86  70  58 SE3       29.97F
SEYMOUR +      PTSUNNY   91  70  49 SW7       29.95F HX  97

$$




USA.gov is the U.S. government's official web portal to all federal, state and local government web resources and services.